Weather History for KANK - May, 2013

Change the Weather History Date:

Wednesday, May 1, 2013

  Actual Average (KGUC) Record (KGUC)
Temperature  
Mean Temperature 38 °F -  
Max Temperature 51 °F 56 °F 71 °F (2001)
Min Temperature 25 °F 25 °F 19 °F (2003)
Degree Days  
Heating Degree Days 26    
Moisture  
Dew Point 30 °F    
Average Humidity 75    
Maximum Humidity 94    
Minimum Humidity 52    
Precipitation  
Precipitation 0.00 in - - ()
Sea Level Pressure  
Sea Level Pressure 30.22 in    
Wind  
Wind Speed 19 mph (ESE)    
Max Wind Speed 28 mph    
Max Gust Speed 43 mph    
Visibility 8 miles    
Events      
Averages and records for this station are not official NWS values.
T = Trace of Precipitation, MM = Missing Value Source: NWS Daily Summary

Daily Weather History Graph

Daily Weather History Graph

Search for Another Location

Airport or City:

Trip Planner

Search our weather history database for the weather conditions in past years. The results will help you decide how hot, cold, wet, or windy it might be!

Date:

Astronomy

May. 01, 2013 Rise Set
Actual Time 6:06 AM MDT 7:56 PM MDT
Civil Twilight 5:38 AM MDT 8:25 PM MDT
Nautical Twilight 5:03 AM MDT 8:59 PM MDT
Astronomical Twilight 4:26 AM MDT 9:37 PM MDT
Moon 1:07 AM MDT (5/1) 11:48 AM MDT (5/1)
Length of Visible Light 14h 47m
Length of Day
13h 49m
Waning Gibbous, 58% of the Moon is Illuminated
May 1
Waning Gibbous
May 2
Last Quarter
May 9
New
May 17
First Quarter
May 24
Full

Hourly Weather History & Observations

Time (MDT) Temp. Windchill Dew Point Humidity Pressure Visibility Wind Dir Wind Speed Gust Speed Precip Events Conditions
12:15 AM 51.1 °F - 33.8 °F 52% 29.92 in 10.0 mi SE 26.5 mph 42.6 mph N/A   Scattered Clouds
12:35 AM 49.8 °F - 34.0 °F 55% 29.93 in 10.0 mi SE 27.6 mph 42.6 mph N/A   Scattered Clouds
12:55 AM 48.6 °F - 34.7 °F 59% 29.95 in 10.0 mi ESE 24.2 mph 38.0 mph N/A   Scattered Clouds
1:15 AM 47.7 °F - 34.7 °F 61% 29.97 in 10.0 mi ESE 27.6 mph 36.8 mph N/A   Clear
1:35 AM 47.1 °F - 34.7 °F 62% 29.98 in 10.0 mi ESE 21.9 mph 38.0 mph N/A   Clear
1:55 AM 46.4 °F 38.3 °F 34.7 °F 64% 29.98 in 10.0 mi ESE 23.0 mph 33.4 mph N/A   Clear
2:15 AM 45.9 °F 37.8 °F 34.7 °F 65% 30.00 in 10.0 mi ESE 21.9 mph 27.6 mph N/A   Clear
2:35 AM 45.7 °F 37.4 °F 34.7 °F 65% 30.00 in 10.0 mi SE 23.0 mph 31.1 mph N/A   Scattered Clouds
2:55 AM 45.3 °F 36.9 °F 34.7 °F 66% 30.01 in 10.0 mi SE 23.0 mph 29.9 mph N/A   Scattered Clouds
3:15 AM 44.8 °F 37.1 °F 34.7 °F 68% 30.01 in 10.0 mi SE 18.4 mph 27.6 mph N/A   Scattered Clouds
3:35 AM 44.6 °F 36.9 °F 34.5 °F 68% 30.02 in 10.0 mi SE 18.4 mph 27.6 mph N/A   Scattered Clouds
3:55 AM 44.6 °F 37.4 °F 34.3 °F 67% 30.04 in 10.0 mi SE 16.1 mph 28.8 mph N/A   Scattered Clouds
4:15 AM 44.1 °F 36.2 °F 34.7 °F 70% 30.04 in 10.0 mi SE 18.4 mph 24.2 mph N/A   Scattered Clouds
4:35 AM 43.7 °F 35.4 °F 34.2 °F 69% 30.04 in 10.0 mi ESE 19.6 mph 26.5 mph N/A   Clear
4:55 AM 43.3 °F 38.6 °F 33.4 °F 68% 30.06 in 10.0 mi SSE 8.1 mph 29.9 mph N/A   Clear
5:15 AM 43.0 °F 36.0 °F 33.1 °F 68% 30.09 in 10.0 mi SE 13.8 mph 26.5 mph N/A   Scattered Clouds
5:35 AM 43.2 °F 37.9 °F 32.9 °F 67% 30.10 in 10.0 mi SSE 9.2 mph 18.4 mph N/A   Mostly Cloudy
5:55 AM 42.8 °F 37.0 °F 32.2 °F 66% 30.10 in 10.0 mi SSE 10.4 mph 19.6 mph N/A   Overcast
6:15 AM 42.3 °F - 32.0 °F 67% 30.11 in 10.0 mi Calm Calm - N/A   Overcast
6:35 AM 41.5 °F 34.6 °F 31.8 °F 68% 30.12 in 10.0 mi SE 12.7 mph 18.4 mph N/A   Overcast
7:15 AM 39.6 °F 31.0 °F 32.0 °F 74% 30.12 in 10.0 mi ESE 16.1 mph 27.6 mph N/A   Overcast
7:35 AM 38.3 °F 27.3 °F 31.6 °F 77% 30.13 in 10.0 mi ESE 24.2 mph 40.3 mph N/A   Mostly Cloudy
7:55 AM 37.4 °F 25.6 °F 31.1 °F 78% 30.13 in 10.0 mi ESE 26.5 mph 38.0 mph N/A   Scattered Clouds
8:15 AM 37.4 °F 25.9 °F 30.9 °F 77% 30.15 in 10.0 mi ESE 25.3 mph 36.8 mph N/A   Mostly Cloudy
8:35 AM 36.7 °F 25.4 °F 30.4 °F 78% 30.17 in 10.0 mi ESE 23.0 mph 33.4 mph N/A   Mostly Cloudy
8:55 AM 36.5 °F 25.7 °F 30.6 °F 79% 30.18 in 10.0 mi SE 20.7 mph 32.2 mph N/A   Overcast
9:15 AM 36.7 °F 26.0 °F 30.6 °F 78% 30.19 in 10.0 mi ESE 20.7 mph 33.4 mph N/A   Overcast
9:35 AM 36.7 °F 25.7 °F 30.7 °F 79% 30.19 in 10.0 mi ESE 21.9 mph 28.8 mph N/A   Overcast
10:15 AM 37.0 °F 26.7 °F 31.1 °F 79% 30.20 in 10.0 mi ESE 19.6 mph 29.9 mph N/A   Overcast
10:35 AM 38.3 °F 27.8 °F 32.0 °F 78% 30.20 in 10.0 mi ESE 21.9 mph 31.1 mph N/A   Overcast
10:55 AM 39.9 °F 29.5 °F 31.8 °F 73% 30.19 in 10.0 mi ESE 24.2 mph 35.7 mph N/A   Overcast
11:15 AM 40.1 °F 29.9 °F 31.8 °F 72% 30.19 in 10.0 mi ESE 23.0 mph 32.2 mph N/A   Scattered Clouds
11:35 AM 42.6 °F 32.6 °F 31.3 °F 64% 30.17 in 10.0 mi ESE 26.5 mph 38.0 mph N/A   Scattered Clouds
11:55 AM 43.3 °F 34.0 °F 30.0 °F 59% 30.17 in 10.0 mi SE 24.2 mph 35.7 mph N/A   Clear
12:15 PM 43.0 °F 33.8 °F 29.7 °F 59% 30.17 in 10.0 mi ESE 23.0 mph 41.4 mph N/A   Scattered Clouds
12:35 PM 42.8 °F 34.0 °F 29.7 °F 60% 30.17 in 10.0 mi SE 20.7 mph 34.5 mph N/A   Scattered Clouds
12:55 PM 42.6 °F 33.5 °F 30.7 °F 63% 30.17 in 10.0 mi ESE 21.9 mph 33.4 mph N/A   Scattered Clouds
1:15 PM 43.2 °F 33.4 °F 29.7 °F 59% 30.17 in 10.0 mi ESE 26.5 mph 35.7 mph N/A   Mostly Cloudy
1:35 PM 38.7 °F 28.0 °F 32.0 °F 77% 30.17 in 5.0 mi ESE 23.0 mph 32.2 mph N/A   Overcast
1:55 PM 37.4 °F 26.6 °F 33.8 °F 87% 30.18 in 4.0 mi ESE 21.9 mph 29.9 mph N/A   Overcast
2:15 PM 36.0 °F 25.0 °F 33.3 °F 90% 30.19 in 2.5 mi ESE 20.7 mph 28.8 mph N/A   Overcast
2:35 PM 37.0 °F 26.4 °F 35.2 °F 93% 30.19 in 1.8 mi ESE 20.7 mph 31.1 mph N/A   Overcast
2:55 PM 38.1 °F 28.8 °F 36.0 °F 92% 30.21 in 3.0 mi East 17.3 mph 34.5 mph N/A   Overcast
3:15 PM 38.7 °F 28.8 °F 35.6 °F 89% 30.22 in 4.0 mi East 19.6 mph 27.6 mph N/A   Overcast
3:35 PM 38.7 °F 29.5 °F 32.4 °F 78% 30.23 in 5.0 mi ESE 17.3 mph 35.7 mph N/A   Overcast
3:55 PM 36.5 °F 25.4 °F 30.4 °F 78% 30.25 in 10.0 mi East 21.9 mph 29.9 mph N/A   Overcast
4:15 PM 36.1 °F 26.2 °F 29.8 °F 78% 30.27 in 10.0 mi East 17.3 mph 28.8 mph N/A   Overcast
4:35 PM 35.1 °F 24.8 °F 28.9 °F 78% 30.30 in 10.0 mi East 17.3 mph 23.0 mph N/A   Overcast
4:55 PM 33.8 °F 25.8 °F 28.8 °F 82% 30.33 in 7.0 mi East 10.4 mph 21.9 mph N/A   Overcast
5:15 PM 33.3 °F 23.7 °F 28.8 °F 84% 30.35 in 5.0 mi NE 13.8 mph 18.4 mph N/A   Overcast
5:35 PM 29.8 °F - 27.7 °F 92% 30.36 in 0.5 mi Calm Calm - N/A   Overcast
5:55 PM 30.2 °F 21.9 °F 28.8 °F 94% 30.37 in 0.5 mi North 9.2 mph - N/A   Overcast
6:15 PM 31.1 °F 26.4 °F 29.3 °F 93% 30.38 in 1.5 mi ENE 4.6 mph - N/A   Overcast
6:35 PM 30.0 °F 21.1 °F 28.4 °F 94% 30.39 in 0.8 mi North 10.4 mph - N/A   Overcast
6:55 PM 30.6 °F 23.8 °F 28.8 °F 93% 30.41 in 1.2 mi North 6.9 mph - N/A   Overcast
7:15 PM 30.0 °F 23.2 °F 26.2 °F 86% 30.42 in 5.0 mi East 6.9 mph - N/A   Overcast
7:35 PM 29.7 °F 22.0 °F 25.3 °F 84% 30.44 in 7.0 mi East 8.1 mph - N/A   Overcast
8:15 PM 28.8 °F 19.5 °F 23.9 °F 82% 30.46 in 10.0 mi ESE 10.4 mph - N/A   Overcast
8:35 PM 28.4 °F 19.1 °F 23.5 °F 82% 30.47 in 10.0 mi ESE 10.4 mph 16.1 mph N/A   Overcast
8:55 PM 28.0 °F 19.3 °F 23.4 °F 83% 30.48 in 10.0 mi East 9.2 mph 17.3 mph N/A   Overcast
9:35 PM 27.9 °F 18.4 °F 22.3 °F 80% 30.51 in 10.0 mi ESE 10.4 mph 16.1 mph N/A   Overcast
9:55 PM 27.5 °F 19.3 °F 21.6 °F 78% 30.52 in 10.0 mi East 8.1 mph - N/A   Overcast
10:15 PM 27.0 °F 18.0 °F 22.3 °F 83% 30.53 in 10.0 mi ENE 9.2 mph - N/A   Overcast
10:35 PM 26.6 °F 16.8 °F 21.6 °F 81% 30.54 in 10.0 mi East 10.4 mph - N/A   Overcast
10:55 PM 26.6 °F 15.7 °F 21.9 °F 82% 30.54 in 10.0 mi East 12.7 mph 18.4 mph N/A   Overcast
11:15 PM 26.2 °F 17.1 °F 21.2 °F 81% 30.55 in 10.0 mi East 9.2 mph - N/A   Overcast
11:35 PM 26.1 °F 16.2 °F 21.6 °F 83% 30.55 in 10.0 mi East 10.4 mph 16.1 mph N/A   Overcast
11:55 PM 25.7 °F 15.7 °F 21.6 °F 84% 30.56 in 10.0 mi East 10.4 mph - N/A   Overcast